This demonstration page uses our WeatherBlox Daily Observations layout. Learn more.

Left ArrowRight Arrow

Hourly Observations for December 20, 2017

Temp ( °F °C ) Dew Point ( °F °C ) Humidity (%) Winds ( mph kmh ) Pressure ( in mb ) Visibility ( mi km ) Precip ( " mm )
12:53 am 00:53 Cloudy with Light Rain 60 15.6 60 15.6 100 100 SSW 3 6 30.04 1017 3 5 0.02 0.51
1:09 am 01:09 Cloudy with Rain 60 15.6 60 15.6 100 100 SW 3 6 30.06 1018 2 3 0.02 0.51
1:13 am 01:13 Cloudy with Rain 60 15.6 60 15.6 100 100 SSW 3 6 30.06 1018 2 3 0.02 0.51
1:20 am 01:20 Cloudy with Rain 60 15.6 60 15.6 100 100 Calm 30.06 1018 2 3 0.04 1.02
1:39 am 01:39 Cloudy with Mist and Fog 60 15.6 60 15.6 100 100 SSW 3 6 30.03 1017 4 6 0.06 1.52
1:53 am 01:53 Cloudy with Light Rain 60 15.6 60 15.6 100 100 SSW 3 6 30.02 1017 6 10 0.06 1.52
2:01 am 02:01 Cloudy with Light Rain 60 15.6 60 15.6 100 100 SSW 3 6 30.03 1017 8 13 0.00 0.03
2:13 am 02:13 Cloudy with Light Rain 60 15.6 60 15.6 100 100 W 3 6 30.03 1017 6 10 0.00 0.03
2:53 am 02:53 Cloudy 60 15.6 60 15.6 100 100 WSW 3 6 30.01 1016 10 16 0.01 0.25
3:32 am 03:32 Cloudy 61 16.1 61 16.1 100 100 SSW 5 7 30.00 1016 7 11 0.00 0.03
3:53 am 03:53 Cloudy with Mist and Fog 61 16.1 61 16.1 100 100 SSW 5 7 29.98 1015 5 8 0.00 0.03
4:53 am 04:53 Cloudy with Mist and Fog 63 17.2 63 17.2 100 100 SSW 12 19 29.95 1014 4 6 0.00 0.00
5:49 am 05:49 Cloudy 63 17 63 17 100 100 SW 10 17 29.97 1015 10 16 0.00 0.00
5:53 am 05:53 Cloudy 64 17.8 63 17.2 96 96 SSW 9 15 29.94 1014 10 16 0.00 0.00
6:53 am 06:53 Cloudy 64 17.8 63 17.2 96 96 SSW 8 13 29.92 1013 10 16 0.00 0.00
7:53 am 07:53 Cloudy 64 17.8 63 17.2 96 96 SSW 9 15 29.91 1013 10 16 0.00 0.00
8:53 am 08:53 Cloudy with Light Rain 65 18.3 63 17.2 93 93 SSW 12 19 29.89 1012 10 16 0.00 0.03
9:33 am 09:33 Cloudy with Rain 64 17.8 64 17.8 100 100 SSW 8 13 29.88 1012 2 3 0.08 2.03
9:53 am 09:53 Cloudy with Heavy Rain 64 17.8 64 17.8 100 100 W 7 11 29.88 1012 2 2 0.17 4.32
10:11 am 10:11 Cloudy with Heavy Rain 62 16.7 61 16.1 96 96 NW 14 22 29.94 1014 2 3 0.24 6.10
10:15 am 10:15 Cloudy with Heavy Rain 61 16.1 60 15.6 97 97 NW 8 13 29.94 1014 2 3 0.27 6.86
10:44 am 10:44 Cloudy with Heavy Rain 60 15.6 60 15.6 100 100 N 5 7 29.94 1014 2 3 0.47 11.94
10:53 am 10:53 Cloudy with Rain 60 15.6 60 15.6 100 100 NW 5 7 29.93 1013 2 3 0.51 12.95
11:53 am 11:53 Cloudy with Light Rain 60 15.6 59 15 96 96 NE 8 13 29.91 1013 6 10 0.13 3.30
12:23 pm 12:23 Cloudy with Rain 60 15.6 60 15.6 100 100 ENE 3 6 29.91 1013 3 4 0.06 1.52
12:31 pm 12:31 Cloudy with Rain 59 15 59 15 100 100 SE 5 7 29.91 1013 3 5 0.08 2.03
12:53 pm 12:53 Mostly Cloudy with Light Rain 60 15.6 60 15.6 100 100 E 6 9 29.85 1011 8 13 0.10 2.54
1:53 pm 13:53 Mostly Cloudy 62 16.7 60 15.6 93 93 VRB 6 9 29.83 1010 8 13 0.00 0.03
2:53 pm 14:53 Cloudy 62 16.7 60 15.6 93 93 ESE 5 7 29.84 1010 10 16 0.00 0.00
3:53 pm 15:53 Cloudy 62 16.7 60 15.6 93 93 E 3 6 29.83 1010 10 16 0.00 0.00
4:53 pm 16:53 Mostly Cloudy 61 16.1 60 15.6 97 97 ENE 6 9 29.81 1010 8 13 0.00 0.00
5:00 pm 17:00 Cloudy 61 16.1 60 15.6 97 97 ENE 5 7 29.83 1010 8 13 0.00 0.00
5:53 pm 17:53 Cloudy with Light Rain 61 16.1 60 15.6 97 97 ENE 3 6 29.82 1010 8 13 0.00 0.03
6:53 pm 18:53 Cloudy 59 15 59 15 100 100 NE 6 9 29.84 1011 10 16 0.12 3.05
7:53 pm 19:53 Cloudy 58 14.4 58 14.4 100 100 NE 3 6 29.86 1011 10 16 0.00 0.00
8:53 pm 20:53 Cloudy 58 14.4 58 14.4 100 100 NNE 5 7 29.87 1012 10 16 0.00 0.00
9:53 pm 21:53 Cloudy with Light Rain 58 14.4 58 14.4 100 100 N 5 7 29.89 1012 4 6 0.05 1.27
10:53 pm 22:53 Cloudy 58 14.4 58 14.4 100 100 Calm 29.91 1013 10 16 0.01 0.25
11:00 pm 23:00 Cloudy 58 14.4 58 14.4 100 100 Calm 29.94 1014 9 14 0.00 0.00
11:53 pm 23:53 Cloudy with Mist and Fog 58 14.4 58 14.4 100 100 Calm 29.93 1014 5 8 0.00 0.00

Powered by AerisWeather